Regional Weather Roundup
Issued by NWS Sioux Falls, SD

Home | Current Version | Previous Version | Graphics & Text | Print | Product List | Glossary On
Versions: 1 2 3 4 5 6 7 8 9 10 11 12 13 14 15 16 17 18 19 20 21 22 23 24 25 26 27 28 29 30 31 32 33 34 35 36 37 38 39 40 41 42 43 44 45 46 47 48 49 50
000
ASUS43 KFSD 022310
RWRFSD

WEATHER ROUNDUP FOR SE SOUTH DAKOTA/SW MINNESOTA/NW IOWA
NATIONAL WEATHER SERVICE SIOUX FALLS SD
600 PM CDT MON MAY 02 2016

NOTE: "FAIR" INDICATES FEW OR NO CLOUDS BELOW 12,000 FEET WITH NO
SIGNIFICANT WEATHER AND OR OBSTRUCTIONS TO VISIBILITY.


SDZ038>040-050-052>070-030000-
SOUTHEAST SOUTH DAKOTA

CITY           SKY/WX    TMP DP  RH WIND       PRES   REMARKS
BROOKINGS      MOSUNNY   61  32  33 VRB3      30.00S
CHAMBERLAIN    CLOUDY    59  47  65 E3        30.00F
HURON          CLOUDY    59  43  55 W6        29.99R
MADISON        FAIR      59  32  36 SW7       30.01F
MITCHELL       SUNNY     64  40  41 SE9       30.00F
SIOUX FALLS    CLOUDY    62  38  40 W6        30.02S
WINNER         LGT RAIN  56  46  69 NE12      30.02F
YANKTON        MOSUNNY   61  36  39 CALM      30.02F
$$

MNZ071-072-080-081-089-090-097-098-030000-
SOUTHWEST MINNESOTA

CITY           SKY/WX    TMP DP  RH WIND       PRES   REMARKS
FAIRMONT       SUNNY     63  32  31 NW3       30.02F
JACKSON        SUNNY     63  30  29 SE3       30.03F
LUVERNE        CLOUDY    63  32  31 W8        30.02F
MARSHALL       SUNNY     63  32  31 S3        30.00F
MONTEVIDEO     SUNNY     72  36  26 S3        30.00F
PIPESTONE      SUNNY     63  36  36 SW7       30.01F
REDWOOD FALLS  SUNNY     65  32  29 S6        29.99F
TRACY          PTSUNNY   63  34  33 CALM      30.01S
WINDOM         SUNNY     63  30  29 CALM      30.02S
WORTHINGTON    CLOUDY    61  36  39 W5        30.03F
$$

IAZ001>003-012>014-020>022-031-032-NEZ013-014-SDZ071-030000-
NORTHWEST IOWA

CITY           SKY/WX    TMP DP  RH WIND       PRES   REMARKS
CHEROKEE       PTSUNNY   60  39  46 W5        30.04S
DENISON        MOSUNNY   63  39  42 N7        30.03S
ESTHERVILLE    SUNNY     61  39  44 VRB5      30.03S
LE MARS        PTSUNNY   63  37  39 SW3       30.04F
ORANGE CITY    MOSUNNY   63  37  39 W5        30.04S
SHELDON        SUNNY     63  36  36 N6        30.02S
SIOUX CITY     SUNNY     64  39  39 CALM      30.04S
SPENCER        MOSUNNY   62  35  36 SW6       30.03F
STORM LAKE     SUNNY     61  34  36 NW5       30.04F
$$

ABBREVIATIONS USED IN REMARKS
   TC - TEMPERATURE IN CELSIUS
  WCI - WIND CHILL INDEX
   HX - HEAT INDEX
  VSB - VISIBILITY





USA.gov is the U.S. government's official web portal to all federal, state and local government web resources and services.